Location: Chiroubles
(46.1812°N, 4.6660°E)
Time: 06:03:14
(UTC+00:00)

Transit 4A - Pass Details

Date: 06 December 2020
Orbit: 864 x 980 km, 66.8° (Epoch: 25 January)

Event Time Altitude Azimuth Distance (km) Brightness Sun altitude
Rises 14:22:20 0° 327° (NNW) 3,682 10.8 11.2°
Reaches altitude 10° 14:24:56 10° 328° (NNW) 2,723 10.2 10.9°
Maximum altitude 14:31:19 79° 55° (NE) 978 8.1 10.2°
Drops below altitude 10° 14:37:30 10° 143° (SE) 2,639 10.5 9.5°
Sets 14:39:59 0° 145° (SE) 3,562 11.1 9.2°
